Weather Roundup
Issued by NWS Corpus Christi, TX

Home | Current Version | Previous Version | Text Only | Print | Product List | Glossary On
Versions: 1 2 3 4 5 6 7 8 9 10 11 12 13 14 15 16 17 18 19 20 21 22 23 24 25 26 27 28 29 30 31 32 33 34 35 36 37 38 39 40 41 42 43 44 45 46 47 48 49 50
000
ASUS44 KCRP 030610
HRRCRP

SOUTH TEXAS REGIONAL WEATHER ROUNDUP
NATIONAL WEATHER SERVICE CORPUS CHRISTI TX
100 AM CDT FRI JUL 03 2015


TXZ229>244-030700-
...CORPUS CHRISTI AREA OBSERVATIONS...

CITY           SKY/WX    TMP DP  RH WIND       PRES   REMARKS
CORPUS CHRISTI CLOUDY    81  78  91 S13       29.96R
NAS CORPUS CHR MOCLDY   N/A N/A N/A S10       29.96R
ROCKPORT       LGT RAIN  83  77  82 S9        29.96R HX  92
KINGSVILLE NAS CLEAR     80  79  96 S7        29.95S
ALICE          CLEAR     79  76  90 S8        29.95R
FALFURRIAS       N/A     77  73  88 SE6       29.94F
$$

...VICTORIA AREA OBSERVATIONS...

CITY           SKY/WX    TMP DP  RH WIND       PRES   REMARKS
VICTORIA       MOCLDY    77  77 100 CALM      29.99R
BEEVILLE       MOCLDY   N/A N/A N/A S8        29.97S
PLEASANTON     MOCLDY    75  73  93 CALM      29.98S
SAN ANTONIO    MOCLDY    78  74  87 SE10      30.00R
$$

...LAREDO AREA OBSERVATIONS...

CITY           SKY/WX    TMP DP  RH WIND       PRES   REMARKS
LAREDO         CLEAR     80  69  69 SE14      29.95R
COTULLA        CLEAR     78  74  87 SE7       29.95S
DEL RIO        CLEAR     79  68  69 E10       29.91F
MCALLEN        CLEAR     76  70  82 SE7       29.95F
HEBBRONVILLE     N/A     76  70  84 SE8       29.96S
$$

...OTHER TEXAS OBSERVATIONS...

CITY           SKY/WX    TMP DP  RH WIND       PRES   REMARKS
BROWNSVILLE    CLEAR     75  72  90 S5        29.96F
HOUSTON        MOCLDY    76  74  93 CALM      30.00S
COL. STATION   CLEAR     77  73  87 S6        30.00R
AUSTIN         CLEAR     74  74 100 S6        29.98S
WACO           CLEAR     79  72  79 S13       29.97F
FORT WORTH     CLOUDY    84  69  60 S21       29.92S
WICHITA FALLS  CLOUDY    79  66  64 S9        29.91R
LUBBOCK        MOCLDY    73  63  70 SE8       30.04R
EL PASO        MOCLDY    87  46  24 E12       29.99R
$$

...MARINE OBSERVATIONS...

STATION/POSITION TIME  SKY/WX   TEMP    WIND        PRES    VSBY  WAVE   SWELL
                                AIR SEA DIR/SP/G                  HT/PER HT/PER
                 (UTC)          (F)     (DEG/KT/KT) (MB)    (MI)  (FT/S) (FT/S)
PORT ARANSAS     0500            81 81  150/ 14/ 16 1014.8R
BUOY 90 E PORT A NOT AVBL
BUOY 45 SE BAFFI 0550            83 83  170/ 17/ 21 1014.0R         5/ 7
BUOY 200 E PT IS 0550            84 84  160/ 16/ 17 1015.7F         4/ 6
BUOY 15 E GALVES 0550            84 83  160/ 12/ 14 1015.4R         3/ 5   2/ 6
$$



USA.gov is the U.S. government's official web portal to all federal, state and local government web resources and services.